Chattanooga, TN

10:25 PM EDT on May 27, 2018 (GMT -0400)
Lovell

Weather History for KCHA - October, 2011

Change the Weather History Date:

Sunday, October 2, 2011

  Actual Average Record
Temperature  
Mean Temperature 56 °F 66 °F  
Max Temperature 68 °F 78 °F 92 °F (1954)
Min Temperature 44 °F 55 °F 36 °F (1984)
Degree Days  
Heating Degree Days 9 2  
Month to date heating degree days 17 4  
Since 1 July heating degree days 20 19  
Cooling Degree Days 0 3  
Month to date cooling degree days 0 7  
Year to date cooling degree days 2097 1696  
Growing Degree Days 6 (Base 50)    
Moisture  
Dew Point 37 °F    
Average Humidity 54    
Maximum Humidity 83    
Minimum Humidity 24    
Precipitation  
Precipitation 0.00 in 0.11 in 1.41 in (1925)
Month to date precipitation 0.00 0.23  
Year to date precipitation 47.42 39.53  
Snow  
Snow 0.00 in 0.00 in - ()
Month to date snowfall 0.0 0.0  
Since 1 July snowfall 0.0 0.0  
Since 1 September snowfall 0.0 0.0  
Snow Depth 0.00 in    
Sea Level Pressure  
Sea Level Pressure 30.15 in    
Wind  
Wind Speed 6 mph (NNW)    
Max Wind Speed 15 mph    
Max Gust Speed 17 mph    
Visibility 10 miles    
Events      
T = Trace of Precipitation, MM = Missing Value Source: NWS Daily Summary

Daily Weather History Graph

Daily Weather History Graph

Search for Another Location

Airport or City:

Astronomy

Oct. 02, 2011 Rise Set
Actual Time 7:36 AM EDT 7:23 PM EDT
Civil Twilight 7:10 AM EDT 7:48 PM EDT
Nautical Twilight 6:41 AM EDT 8:18 PM EDT
Astronomical Twilight 6:12 AM EDT 8:47 PM EDT
Moon 1:28 PM EDT (10/2) 11:34 PM EDT (10/2)
Length of Visible Light 12h 38m
Length of Day
11h 47m
Waxing Crescent, 34% of the Moon is Illuminated
Oct 2
Waxing Crescent
Oct 3
First Quarter
Oct 11
Full
Oct 19
Last Quarter
Oct 26
New

Hourly Weather History & Observations

Time (EDT) Temp. Windchill Dew Point Humidity Pressure Visibility Wind Dir Wind Speed Gust Speed Precip Events Conditions
12:53 AM 52.0 °F - 43.0 °F 71% 30.15 in 10.0 mi Calm Calm - N/A   Mostly Cloudy
1:53 AM 48.9 °F - 42.1 °F 77% 30.15 in 10.0 mi Calm Calm - N/A   Partly Cloudy
2:53 AM 48.0 °F - 42.1 °F 80% 30.14 in 10.0 mi Calm Calm - N/A   Clear
3:53 AM 46.0 °F - 41.0 °F 83% 30.14 in 10.0 mi Calm Calm - N/A   Clear
4:53 AM 46.0 °F 44.8 °F 41.0 °F 83% 30.14 in 10.0 mi NNW 3.5 mph - N/A   Clear
5:53 AM 46.0 °F 43.9 °F 39.9 °F 79% 30.15 in 10.0 mi NNW 4.6 mph - N/A   Clear
6:53 AM 44.1 °F 42.5 °F 39.9 °F 85% 30.15 in 10.0 mi NW 3.5 mph - N/A   Clear
7:53 AM 44.1 °F 40.8 °F 39.9 °F 85% 30.16 in 10.0 mi NW 5.8 mph - N/A   Clear
8:53 AM 48.9 °F - 39.9 °F 71% 30.18 in 10.0 mi NW 4.6 mph - N/A   Clear
9:53 AM 54.0 °F - 37.9 °F 55% 30.19 in 10.0 mi NNE 15.0 mph - N/A   Clear
10:53 AM 57.0 °F - 37.0 °F 47% 30.19 in 10.0 mi North 13.8 mph - N/A   Clear
11:53 AM 59.0 °F - 37.0 °F 44% 30.19 in 10.0 mi NNE 9.2 mph 17.3 mph N/A   Clear
12:53 PM 61.0 °F - 36.0 °F 39% 30.17 in 10.0 mi NNE 11.5 mph 17.3 mph N/A   Clear
1:53 PM 64.0 °F - 35.1 °F 34% 30.14 in 10.0 mi NNW 10.4 mph - N/A   Clear
2:53 PM 66.0 °F - 28.9 °F 25% 30.12 in 10.0 mi NNE 9.2 mph - N/A   Clear
3:53 PM 66.9 °F - 30.9 °F 26% 30.11 in 10.0 mi NNE 9.2 mph 16.1 mph N/A   Clear
4:53 PM 68.0 °F - 30.9 °F 25% 30.10 in 10.0 mi NNW 11.5 mph - N/A   Clear
5:53 PM 66.9 °F - 30.9 °F 26% 30.11 in 10.0 mi NNW 9.2 mph - N/A   Clear
6:53 PM 63.0 °F - 32.0 °F 31% 30.12 in 10.0 mi NW 11.5 mph - N/A   Clear
7:53 PM 57.0 °F - 35.1 °F 44% 30.13 in 10.0 mi NW 4.6 mph - N/A   Clear
8:53 PM 55.9 °F - 36.0 °F 47% 30.15 in 10.0 mi Calm Calm - N/A   Clear
9:53 PM 55.9 °F - 37.0 °F 49% 30.16 in 10.0 mi Calm Calm - N/A   Clear
10:53 PM 48.9 °F - 41.0 °F 74% 30.17 in 10.0 mi Calm Calm - N/A   Clear
11:53 PM 48.0 °F - 39.9 °F 74% 30.17 in 10.0 mi Calm Calm - N/A   Clear